www.pogodaiklimat.ru

Погода и климат >> Архив погоды >> Марокко >> Сафи


ПОГОДА в Сафи

  • Прогноз погоды в Сафи
  • Монитор погоды в Сафи

АРХИВ ПОГОДЫ в Сафи

Время (UTC), дата Ветер
(напр.,м/с)
 
Видим.   Явления Облачность Т
(С)
Тd
(С)
f
(%)
Тe
(С)
Тes
(С)
Комфортность P
(гПа)
Po
(гПа)
Тmin
(С)
Tmax
(С)
R
(мм)
R24
(мм)
S
(см)
09 12.06 СВ 7-12
{12}
20 км 3/3 480 м
[Sc]
+20.8 +12.9 61 +23 +25 комфорт 1011.9 1006.7
12 12.06 СЗ 11-14
{14}
20 км ясно +21.8 +14.3 62 +25 +25 комфорт 1011.3 1006.1
15 12.06 С 9-16
{12}
20 км ясно +22.8 +15.1 62 +27 +28 душно 1010.3 1005.1
18 12.06 С 8-14
{13}
20 км ясно +22.9 +14.2 58 +26 +27 жарко 1009.9 1004.7 +23.6
06 13.06 СВ 5-6
{9}
н/о н/о +14.2 +10.4 78 +13 +13 1010.3 1004.9 -0.0
09 13.06 С 6-11
{14}
20 км 8/8 480 м
[Sc]
+20.8 +14.8 69 +24 +24 комфорт 1012.5 1007.3
12 13.06 С 10-17
{18}
20 км 8/8
[Sc]
+21.0 +13.7 63 +23 +23 комфорт 1013.7 1008.5
15 13.06 С 12-16
{17}
20 км 6/6 480 м
[Sc]
+20.8 +13.1 61 +22 +22 комфорт 1014.4 1009.2
18 13.06 С 7-15
{17}
20 км ясно +20.7 +11.5 56 +22 +23 комфорт 1015.3 1010.1 +22.1
06 14.06
{7}
н/о н/о +17.4 +10.7 65 1017.5 1012.1 +16.8
09 14.06 В 8-13
{13}
20 км 4/4 480 м
[Sc]
+20.9 +9.9 49 +22 +23 комфорт 1019.1 1013.8
12 14.06 СЗ 10-17
{15}
20 км 6/6 480 м
[Sc]
+22.0 +10.9 49 +24 +24 комфорт 1019.4 1014.2
15 14.06 С 10-19
{19}
20 км 3/3 480 м
[Sc]
+23.0 +10.7 46 +25 +26 комфорт 1018.7 1013.5
18 14.06 СВ 11-19
{15}
20 км 3/3 300 м
[Sc]
+21.8 +10.7 49 +24 +24 комфорт 1018.8 1013.6 +23.3
06 15.06
{8}
н/о н/о +15.4 +10.8 74 1018.4 1013.0 +15.4
09 15.06 В 9-15
{15}
20 км ясно +20.5 +11.0 54 +22 +23 комфорт 1019.8 1014.5
12 15.06 СВ 10-14
{14}
20 км ясно +25.9 +9.8 36 +27 +28 жарко 1019.0 1013.8
15 15.06 С 11-21
{21}
20 км ясно +24.5 +10.9 42 +26 +26 жарко 1018.7 1013.5
18 15.06 СВ 7-21
{23}
20 км ясно +22.0 +11.6 52 +24 +25 комфорт 1018.1 1012.9 +26.2
06 16.06
{6}
н/о н/о +14.3 +11.5 83 1017.8 1012.4 +14.3
09 16.06 СВ 4-10
{10}
20 км 3/3 480 м
[Sc]
+20.7 +12.5 59 +23 +28 комфорт 1020.0 1014.7
12 16.06 СЗ 13-16
{17}
20 км ясно +20.5 +13.5 64 +22 +22 комфорт 1020.1 1014.8
15 16.06 СЗ 9
{14}
н/о н/о +22.0 +14.9 64 +25 +27 комфорт 1019.2 1013.9
18 16.06 С 7-15
{18}
20 км ясно +21.9 +13.2 58 +25 +25 комфорт 1019.2 1014.0 +22.7
06 17.06 В 4
{9}
10 км н/о +15.9 +13.4 85 +15 +15 1018.5 1013.2 +14.9
09 17.06 СВ 4-10
{6}
20 км ясно +20.7 +14.1 66 +24 +30 комфорт 1018.5 1013.3
12 17.06 С 11-14
{14}
20 км ясно +21.9 +13.8 60 +25 +25 комфорт 1017.8 1012.5
15 17.06 СЗ 11
{12}
н/о н/о +21.8 +14.8 64 +24 +25 комфорт 1016.8 1011.5
18 17.06 СЗ 8-12
{18}
20 км ясно +20.5 +14.3 68 +23 +23 комфорт 1017.6 1012.4 +22.5
06 18.06 ЮВ 2
{4}
10 км н/о +14.4 +11.9 85 +14 +14 1018.0 1012.7 +14.0
09 18.06 ЮВ 3-7
{6}
20 км ясно +20.9 +13.8 64 +24 +32 комфорт 1018.7 1013.5
12 18.06 СЗ 10-14
{13}
20 км ясно +21.4 +14.6 65 +24 +25 комфорт 1018.9 1013.7
15 18.06 СЗ 10-13
{15}
20 км ясно +22.8 +15.1 62 +27 +27 душно 1017.7 1012.5
18 18.06 СЗ 7-11
{15}
20 км ясно +21.8 +15.4 67 +25 +26 комфорт 1017.4 1012.2 +23.8
06 19.06
{10}
н/о н/о +17.9 +15.2 84 1017.0 1011.6 +17.9

 

Местоположение метеостанции Сафи (Марокко): широта 32.28 долгота -9.23 высота над уровнем моря 52 м.

В архиве по умолчанию представлена погода в Сафи за последнюю неделю. Архивные данные за месяц целиком и за предыдущие месяцы, начиная с января 2011 года, Вы можете получить, выбрав интересующий диапазон дат из раскрывающегося списка и нажав кнопку "Ввод!".


*Определитесь, кто Вы:
робот инопланетянин человек

Внимание! Время в таблицах - всемирное. Для получения местного времени необходимо прибавить поправку, которая равна 0 ч.

Смотрите также архив погоды в соседних городах и на ближайших метеорологических станциях:

Погода в Эс-Сувейре (Марокко) (99 км)
Погода в Аэропорту Эс-Сувейра-Могадор (Марокко) (107 км)
Погода в Марракеше (Марокко) (135 км)
Погода в Сеттате (Марокко) (168 км)
Погода в Нуасере (Марокко) (196 км)
Погода в Таруданте (Марокко) (202 км)
Погода в Касабланке (Марокко) (204 км)
Погода в Агадире (Марокко) (214 км)
Погода в Агадире (Марокко) (219 км)
Погода в Хурибге (Марокко) (222 км)

Пояснения к столбцам:

Ветер - указаны скорость ветра в м/с - средняя за 10 мин, порывы в срок и между сроками (в фигурных скобках) и направление, откуда дует ветер: С - северный, СВ - северо-восточный, В - восточный, ЮВ - юго-восточный, Ю - южный, ЮЗ - юго-западный, З - западный, СЗ - северо-западный.
Видимость - горизонтальная дальность видимости в метрах или километрах. При видимости от 1 до 10 км при отсутствии осадков обычно наблюдается дымка, при ухудшении видимости до 1 км и менее - туман. В сухую погоду видимость может ухудшаться дымом, пылью или мглою.
Явления - указаны атмосферные явления, наблюдавшиеся в срок или в последний час перед сроком; фигурными скобками обозначены явления, наблюдавшиеся между сроками (за 1-3 часа до срока); квадратными скобками обозначены град или гололедные отложения с указанием их диаметра в мм.
Облачность - указаны через наклонную черту общая и нижняя облачность в баллах и высота нижней границы облаков в метрах; квадратными скобками обозначены формы облаков: Ci - перистые, Cs - перисто-слоистые, Cc - перисто-кучевые, Ac - высококучевые, As - высокослоистые, Sc - слоисто-кучевые, Ns - слоисто-дождевые, Cu - кучевые, Cb - кучево-дождевые. Подробнее классификацию облаков см. в Атласе облаков (PDF).
T - Температура воздуха - температура, измеренная на высоте 2 м над землей.
Td - Температура точки росы - температура, при понижении до которой содержащийся в воздухе водяной пар достигнет насыщения.
f - Относительная влажность воздуха - влажноcть воздуха, измеренная на высоте 2 м над землей.
Te - Эффективная температура - температура, которую ощущает одетый по сезону человек в тени. Характеристика душности погоды. При расчете учитывается влияние влажности воздуха и скорости ветра на теплоощущения человека.
Tes - Эффективная температура на солнце - температура, которую ощущает человек, с поправкой на солнечный нагрев. Характеристика знойности погоды. Зависит от высоты солнца над горизонтом, облачности и скорости ветра. Ночью, в пасмурную погоду, а также при ветре 12 м/с и более поправка равна нулю.
P - Атмосферное давление - приведенное к уровню моря атмосферное давление.
Po - Атмосферное давление - измеренное на уровне метеостанции атмосферное давление.
Tmin - Минимальная температура - минимум температуры воздуха на высоте 2 м над землей.
Tmax - Максимальная температура - максимум температуры воздуха на высоте 2 м над землей.
R - Количество осадков - Количество выпавших осадков за период времени, мм. При наведении курсора мыши на число - период времени, за который выпало указанное количество осадков.
R24 - Количество осадков - Количество выпавших осадков за 24 часа, мм.
S - Снежный покров - Высота снежного покрова, см. При наведении курсора мыши на число - состояние снежного покрова и степень покрытия местности в баллах.